sat.trackr.live / text

‹ back to catalog

STARLINK-33816

NORAD 63677 · 2025-085P

PAYLOAD ACTIVE UNKNOWN

§ Identity

Operator
Country
US
Launch date
2025-04-28
Launch site
AFETR
Launch vehicle
Mass (kg)
RCS (m²)

Purposes: comms

External: N2YO · Heavens-Above · Gunter

§ Orbital elements

Epoch: 2026-09-20T13:50:22.470144Z

Period
94.27 min
Inclination
43.0017°
Eccentricity
0.0001300
Mean motion
15.27594604 rev/d
Perigee alt
482.1 km
Apogee alt
483.9 km
Semi-major
6,861.1 km
B*
4.8880e-4
RAAN
10.4438°
Arg perigee
269.6592°
Mean anomaly
90.4111°
Rev number
7,877

§ Raw data

STARLINK-338161 63677U 25085P   26263.57664896  .00013219  00000+0  48880-3 0  99952 63677  43.0017  10.4438 0001300 269.6592  90.4111 15.27594604 78777

JSON: /api/v1/satellites/63677 · /tle

For live sub-satellite position, see the globe view (requires WebGL).

§ Visibility from observer

Set your observer location to see the next 7 days of passes ≥ 10°. The values pass through the URL so the page stays shareable.

No JS? Fill the form by hand. The geolocation button needs JavaScript.